This is the latest recevied weather packets stored in our database for station/object HB9HFD-13. If no packets are shown the sender has not sent any weather packets the latest 10 day(s).
| Time | Temp. | Humidity | Pressure | Rain* | Wind** | Luminosity | Snow |
|---|---|---|---|---|---|---|---|
| 1787764514 | 26.11° C | 62% | 1011.6 hPa | 0 mm | - | - | - |
| 1787764213 | 26.67° C | 61% | 1011.6 hPa | 0 mm | - | - | - |
| 1787763913 | 27.22° C | 58% | 1011.6 hPa | 0 mm | - | - | - |
| 1787763613 | 27.22° C | 55% | 1011.7 hPa | 0 mm | - | - | - |
| 1787763312 | 27.78° C | 54% | 1011.7 hPa | 0 mm | - | - | - |
| 1787763012 | 28.33° C | 54% | 1011.7 hPa | 0 mm | - | - | - |
| 1787762712 | 28.33° C | 52% | 1011.8 hPa | 0 mm | - | - | - |
| 1787762412 | 28.89° C | 52% | 1011.9 hPa | 0 mm | - | - | - |
| 1787762111 | 28.89° C | 52% | 1011.8 hPa | 0 mm | - | - | - |
| 1787761811 | 28.33° C | 52% | 1011.8 hPa | 0 mm | - | - | - |
| 1787761511 | 28.33° C | 52% | 1011.7 hPa | 0 mm | - | - | - |
| 1787761211 | 28.33° C | 52% | 1011.8 hPa | 0 mm | - | - | - |
| 1787760910 | 28.89° C | 52% | 1011.9 hPa | 0 mm | - | - | - |
| 1787760610 | 28.33° C | 55% | 1011.7 hPa | 0 mm | - | - | - |
| 1787760310 | 27.78° C | 55% | 1011.8 hPa | 0 mm | - | - | - |
| 1787760009 | 27.78° C | 57% | 1011.8 hPa | 0 mm | - | - | - |
| 1787759709 | 27.78° C | 57% | 1011.9 hPa | 0 mm | - | - | - |
| 1787759409 | 27.22° C | 57% | 1011.8 hPa | 0 mm | - | - | - |
| 1787759109 | 27.78° C | 56% | 1011.8 hPa | 0 mm | - | - | - |
| 1787758808 | 27.22° C | 56% | 1011.9 hPa | 0 mm | - | - | - |
| 1787758508 | 27.22° C | 56% | 1012 hPa | 0 mm | - | - | - |
| 1787758208 | 27.78° C | 55% | 1012.1 hPa | 0 mm | - | - | - |
| 1787757908 | 27.78° C | 54% | 1012.1 hPa | 0 mm | - | - | - |
| 1787757607 | 27.78° C | 55% | 1012.1 hPa | 0 mm | - | - | - |
| 1787757307 | 28.33° C | 53% | 1012.1 hPa | 0 mm | - | - | - |
* Rain latest hour (hover to see other rain measurements)
** Current wind speed in m/s (hover to see current wind gust speed)